GW1828 Weather Reports


time (UTC)temp
C
wind
direction
speed
KPH
gust
KPH
rain 1hr
cm
rain 24hr
cm
rain mn
cm
humidity
%
barometer
mb
20260906064959 23 141 1.6 3.2 0.00 0.00 0.00 62 1022.4
20260906064457 23 141 1.6 4.8 0.00 0.00 0.00 64 1022.4
20260906063957 23 141 3.2 4.8 0.00 0.00 0.00 65 1022.4
20260906063501 22 302 0.0 3.2 0.00 0.00 0.00 64 1022.4
20260906062958 22 302 1.6 4.8 0.00 0.00 0.00 65 1022.4
20260906062459 22 302 1.6 4.8 0.00 0.00 0.00 64 1022.2
20260906061958 23 302 3.2 3.2 0.00 0.00 0.00 64 1022.3
20260906061459 22 302 0.0 3.2 0.00 0.00 0.00 66 1022.2
20260906060957 22 302 0.0 0.0 0.00 0.00 0.00 64 1022.1
20260906060759 22 302 0.0 0.0 0.00 0.00 0.00 64 1022.1
20260906055957 21 300 0.0 0.0 0.00 0.00 0.00 68 1022.0
20260906055457 21 300 0.0 0.0 0.00 0.00 0.00 69 1022.0
20260906054958 20 300 0.0 0.0 0.00 0.00 0.00 69 1021.8
20260906054456 20 300 0.0 0.0 0.00 0.00 0.00 70 1022.0
20260906053956 20 309 0.0 0.0 0.00 0.00 0.00 72 1021.8
20260906053456 19 309 0.0 0.0 0.00 0.00 0.00 71 1022.0
20260906052957 18 310 0.0 3.2 0.00 0.00 0.00 72 1021.8
20260906052456 18 310 0.0 3.2 0.00 0.00 0.00 73 1021.8
20260906051956 18 310 1.6 1.6 0.00 0.00 0.00 73 1021.8
20260906051456 17 310 0.0 4.8 0.00 0.00 0.00 74 1021.8
20260906050953 18 310 0.0 4.8 0.00 0.00 0.00 74 1021.8
20260906050454 17 310 0.0 3.2 0.00 0.00 0.00 75 1021.8
20260906045954 17 310 0.0 0.0 0.00 0.00 0.00 74 1021.6
20260906045452 17 310 0.0 0.0 0.00 0.00 0.00 74 1021.6
20260906044951 17 310 0.0 3.2 0.00 0.00 0.00 74 1021.6
20260906044451 18 310 0.0 6.4 0.00 0.00 0.00 73 1021.6
20260906043949 18 310 1.6 6.4 0.00 0.00 0.00 72 1021.6
20260906043449 18 258 0.0 0.0 0.00 0.00 0.00 71 1021.5
20260906042949 18 258 0.0 0.0 0.00 0.00 0.00 71 1021.5
20260906042447 18 258 0.0 3.2 0.00 0.00 0.00 71 1021.4
20260906042256 18 258 0.0 3.2 0.00 0.00 0.00 71 1021.4
20260906041751 18 258 0.0 3.2 0.00 0.00 0.00 70 1021.4
20260906040946 18 258 0.0 4.8 0.00 0.00 0.00 69 1021.4
20260906040445 19 258 0.0 4.8 0.00 0.00 0.00 68 1021.4
20260906040254 20 258 0.0 6.4 0.00 0.00 0.00 68 1021.3
20260906035443 20 258 0.0 6.4 0.00 0.00 0.00 67 1021.3
20260906035251 20 258 3.2 4.8 0.00 0.00 0.00 68 1021.2
20260906034444 19 258 1.6 4.8 0.00 0.00 0.00 69 1021.3
20260906033941 19 258 0.0 4.8 0.00 0.00 0.00 71 1021.3
20260906033443 18 258 3.2 4.8 0.00 0.00 0.00 73 1021.3
20260906032942 18 258 3.2 4.8 0.00 0.00 0.00 75 1021.3
20260906032440 18 258 0.0 0.0 0.00 0.00 0.00 76 1021.3
20260906031940 18 258 0.0 0.0 0.00 0.00 0.00 76 1021.4
20260906031439 18 258 0.0 0.0 0.00 0.00 0.00 76 1021.4
20260906031250 18 258 0.0 0.0 0.00 0.00 0.00 76 1021.4
20260906030437 18 258 0.0 0.0 0.00 0.00 0.00 76 1021.4
20260906025937 19 258 0.0 0.0 0.00 0.00 0.00 75 1021.4
20260906025436 19 258 0.0 0.0 0.00 0.00 0.00 74 1021.4
20260906024938 19 258 0.0 0.0 0.00 0.00 0.00 74 1021.4
20260906024436 19 258 0.0 0.0 0.00 0.00 0.00 74 1021.4
20260906023934 19 258 0.0 0.0 0.00 0.00 0.00 75 1021.5
20260906023433 19 258 0.0 0.0 0.00 0.00 0.00 74 1021.5
20260906022933 19 258 0.0 0.0 0.00 0.00 0.00 74 1021.5
20260906022432 19 258 0.0 0.0 0.00 0.00 0.00 75 1021.5
20260906022237 19 258 0.0 3.2 0.00 0.00 0.00 75 1021.4
20260906021431 19 258 0.0 3.2 0.00 0.00 0.00 75 1021.5
20260906020934 20 258 0.0 3.2 0.00 0.00 0.00 74 1021.5
20260906020433 20 258 0.0 4.8 0.00 0.00 0.00 74 1021.6
20260906015932 21 258 1.6 4.8 0.00 0.00 0.00 74 1021.6
20260906015432 20 258 3.2 4.8 0.00 0.00 0.00 74 1021.6
20260906014933 20 258 3.2 4.8 0.00 0.00 0.00 74 1021.6
20260906014433 20 254 3.2 4.8 0.00 0.00 0.00 74 1021.6
20260906013933 20 254 3.2 4.8 0.00 0.00 0.00 73 1021.6
20260906013433 20 289 0.0 3.2 0.00 0.00 0.00 72 1021.6
20260906013233 20 289 0.0 3.2 0.00 0.00 0.00 70 1021.6
20260906012433 20 289 1.6 6.4 0.00 0.00 0.00 70 1021.6
20260906012050 20 80 0.0 1.6 0.00 0.00 0.00 69 1021.6
20260906012018 20 289 3.2 6.4 0.00 0.00 0.00 69 1021.5
20260906010933 21 80 0.0 3.2 0.00 0.00 0.00 68 1021.5
20260906010432 21 80 0.0 4.8 0.00 0.00 0.00 67 1021.5
20260906010236 21 80 1.6 4.8 0.00 0.00 0.00 66 1021.6
20260906005433 21 80 3.2 8.0 0.00 0.00 0.00 63 1021.6
20260906005236 22 261 3.2 8.0 0.00 0.00 0.00 68 1021.5
20260906004433 22 243 3.2 8.0 0.00 0.00 0.00 66 1021.5
20260906003932 22 257 4.8 8.0 0.00 0.00 0.00 63 1021.6
20260906003432 22 258 4.8 8.0 0.00 0.00 0.00 63 1021.5
20260906002934 22 0 0.0 4.8 0.00 0.00 0.00 60 1021.4
20260906002739 22 0 3.2 9.7 0.00 0.00 0.00 57 1021.5
20260906001933 23 0 1.6 16.1 0.00 0.00 0.00 56 1021.5
20260906001747 23 226 6.4 16.1 0.00 0.00 0.00 54 1021.3
20260906000936 22 220 6.4 11.3 0.00 0.00 0.00 53 1021.4
20260906000737 22 248 8.0 14.5 0.00 0.00 0.00 55 1021.3
20260905235933 22 243 4.8 14.5 0.00 0.00 0.00 58 1021.4
20260905235433 21 245 3.2 8.0 0.00 0.00 0.00 63 1021.4
20260905234932 21 337 0.0 3.2 0.00 0.00 0.00 65 1021.5
20260905234434 21 337 0.0 6.4 0.00 0.00 0.00 64 1021.4
20260905233934 21 337 3.2 6.4 0.00 0.00 0.00 64 1021.5
20260905233432 21 299 1.6 6.4 0.00 0.00 0.00 64 1021.5
20260905233239 21 333 3.2 9.7 0.00 0.00 0.00 65 1021.6
20260905232432 21 234 3.2 9.7 0.00 0.00 0.00 65 1021.5
20260905232235 21 333 0.0 8.0 0.00 0.00 0.00 69 1021.5
20260905231735 21 333 1.6 8.0 0.00 0.00 0.00 69 1021.5
20260905230933 21 358 3.2 6.4 0.00 0.00 0.00 68 1021.5
20260905230734 21 358 4.8 6.4 0.00 0.00 0.00 66 1021.6
20260905225933 22 51 1.6 6.4 0.00 0.00 0.00 65 1021.6
20260905225433 22 51 0.0 11.3 0.00 0.00 0.00 65 1021.5
20260905224936 23 250 4.8 17.7 0.00 0.00 0.00 67 1021.6
20260905224432 23 261 9.7 17.7 0.00 0.00 0.00 67 1021.6
20260905223933 23 244 11.3 19.3 0.00 0.00 0.00 64 1021.5
20260905223435 22 271 11.3 19.3 0.00 0.00 0.00 64 1021.6
20260905222933 22 279 11.3 17.7 0.00 0.00 0.00 64 1021.6
20260905222431 22 251 8.0 14.5 0.00 0.00 0.00 64 1021.6
20260905222241 22 257 6.4 9.7 0.00 0.00 0.00 66 1021.5
20260905221432 22 254 1.6 6.4 0.00 0.00 0.00 67 1021.6
20260905220936 22 289 1.6 9.7 0.00 0.00 0.00 67 1021.6
20260905220432 22 283 3.2 11.3 0.00 0.00 0.00 67 1021.5
20260905215933 23 245 6.4 11.3 0.00 0.00 0.00 67 1021.4
20260905215432 23 244 6.4 11.3 0.00 0.00 0.00 67 1021.4
20260905214934 23 240 8.0 11.3 0.00 0.00 0.00 68 1021.4
20260905214736 22 210 6.4 14.5 0.00 0.00 0.00 68 1021.4
20260905213932 22 238 8.0 14.5 0.00 0.00 0.00 70 1021.4
20260905213735 23 238 8.0 14.5 0.00 0.00 0.00 72 1021.5
20260905212936 23 244 6.4 17.7 0.00 0.00 0.00 71 1021.5
20260905212434 23 213 9.7 17.7 0.00 0.00 0.00 72 1021.5
20260905211932 23 202 9.7 11.3 0.00 0.00 0.00 71 1021.6
20260905211432 23 220 8.0 11.3 0.00 0.00 0.00 71 1021.6
20260905210934 23 243 4.8 16.1 0.00 0.00 0.00 73 1021.6
20260905210432 23 255 8.0 16.1 0.00 0.00 0.00 73 1021.6
20260905205933 23 238 9.7 11.3 0.00 0.00 0.00 73 1021.6
20260905205434 22 228 6.4 11.3 0.00 0.00 0.00 73 1021.6
20260905205234 22 224 6.4 14.5 0.00 0.00 0.00 74 1021.6
20260905204432 23 251 6.4 14.5 0.00 0.00 0.00 75 1021.6
20260905203931 23 254 6.4 16.1 0.00 0.00 0.00 74 1021.6
20260905203430 23 250 6.4 16.1 0.00 0.00 0.00 74 1021.6
20260905202931 23 252 6.4 14.5 0.00 0.00 0.00 74 1021.6
20260905202429 23 241 6.4 14.5 0.00 0.00 0.00 74 1021.6
20260905201928 23 248 8.0 16.1 0.00 0.00 0.00 74 1021.5
20260905201428 23 268 8.0 16.1 0.00 0.00 0.00 73 1021.5
20260905200929 23 241 8.0 11.3 0.00 0.00 0.00 72 1021.5
20260905200732 23 240 6.4 11.3 0.00 0.00 0.00 72 1021.6
20260905195926 23 247 8.0 14.5 0.00 0.00 0.00 71 1021.6
20260905195424 23 223 8.0 14.5 0.00 0.00 0.00 70 1021.6
20260905194925 23 244 8.0 17.7 0.00 0.00 0.00 70 1021.7
20260905194424 23 279 8.0 17.7 0.00 0.00 0.00 70 1021.7
20260905193922 24 245 9.7 16.1 0.00 0.00 0.00 69 1021.7
20260905193421 24 224 8.0 16.1 0.00 0.00 0.00 68 1021.7
20260905192922 24 245 4.8 9.7 0.00 0.00 0.00 67 1021.8
20260905192422 24 278 3.2 11.3 0.00 0.00 0.00 67 1021.7
20260905191920 25 268 6.4 11.3 0.00 0.00 0.00 64 1021.7
20260905191420 25 135 1.6 14.5 0.00 0.00 0.00 64 1021.6
20260905190919 25 305 6.4 16.1 0.00 0.00 0.00 65 1021.5
20260905190418 25 240 9.7 17.7 0.00 0.00 0.00 65 1021.5
20260905190227 25 252 9.7 20.9 0.00 0.00 0.00 65 1021.2
20260905185418 25 261 11.3 20.9 0.00 0.00 0.00 64 1021.3
20260905184918 25 233 6.4 20.9 0.00 0.00 0.00 63 1021.2
20260905184528 25 220 12.9 22.5 0.00 0.00 0.00 62 1021.2
20260905184456 25 250 8.0 22.5 0.00 0.00 0.00 62 1021.2
20260905183414 25 204 9.7 20.9 0.00 0.00 0.00 61 1021.2
20260905182914 25 219 11.3 19.3 0.00 0.00 0.00 61 1021.2
20260905182411 25 257 11.3 19.3 0.00 0.00 0.00 59 1021.2
20260905181912 25 248 6.4 16.1 0.00 0.00 0.00 58 1021.1
20260905181726 25 223 9.7 16.1 0.00 0.00 0.00 59 1021.1
20260905180909 25 245 9.7 17.7 0.00 0.00 0.00 59 1021.0
20260905180411 26 238 11.3 17.7 0.00 0.00 0.00 59 1020.9
20260905175910 26 219 8.0 19.3 0.00 0.00 0.00 58 1020.9
20260905175410 26 244 9.7 19.3 0.00 0.00 0.00 58 1021.0
20260905174909 26 228 9.7 17.7 0.00 0.00 0.00 57 1020.9
20260905174408 26 237 11.3 22.5 0.00 0.00 0.00 56 1020.9
20260905174219 26 240 8.0 22.5 0.00 0.00 0.00 54 1020.9
20260905173715 26 245 9.7 19.3 0.00 0.00 0.00 53 1020.8
20260905172906 26 213 8.0 19.3 0.00 0.00 0.00 52 1020.8
20260905172403 26 250 9.7 17.7 0.00 0.00 0.00 52 1020.7
20260905171903 26 235 9.7 17.7 0.00 0.00 0.00 52 1020.7
20260905171720 26 254 8.0 16.1 0.00 0.00 0.00 51 1020.6
20260905170902 27 192 8.0 17.7 0.00 0.00 0.00 51 1020.7
20260905170406 27 224 8.0 17.7 0.00 0.00 0.00 51 1020.6
20260905165902 27 264 8.0 14.5 0.00 0.00 0.00 52 1020.7
20260905165715 27 257 4.8 14.5 0.00 0.00 0.00 52 1020.7
20260905164902 27 228 8.0 14.5 0.00 0.00 0.00 51 1020.7
20260905164712 27 221 6.4 14.5 0.00 0.00 0.00 50 1020.7
20260905163902 28 262 8.0 14.5 0.00 0.00 0.00 48 1020.6
20260905163403 28 261 6.4 16.1 0.00 0.00 0.00 46 1020.5
20260905162903 28 243 4.8 20.9 0.00 0.00 0.00 47 1020.6
20260905162403 28 271 4.8 20.9 0.00 0.00 0.00 49 1020.5
20260905161902 29 216 9.7 19.3 0.00 0.00 0.00 48 1020.5
20260905161403 29 292 9.7 20.9 0.00 0.00 0.00 47 1020.6
20260905160902 29 275 6.4 20.9 0.00 0.00 0.00 46 1020.5
20260905160534 30 292 11.3 22.5 0.00 0.00 0.00 46 1020.5
20260905160451 29 289 9.7 20.9 0.00 0.00 0.00 46 1020.5
20260905155403 30 293 8.0 22.5 0.00 0.00 0.00 46 1020.5
20260905154903 30 290 9.7 22.5 0.00 0.00 0.00 45 1020.5
20260905154400 30 283 8.0 24.1 0.00 0.00 0.00 46 1020.5
20260905154217 30 279 11.3 24.1 0.00 0.00 0.00 46 1020.5
20260905153359 30 290 12.9 22.5 0.00 0.00 0.00 46 1020.5
20260905152858 30 261 11.3 22.5 0.00 0.00 0.00 47 1020.5
20260905152358 30 289 12.9 22.5 0.00 0.00 0.00 48 1020.5
20260905151859 30 351 12.9 22.5 0.00 0.00 0.00 48 1020.4
20260905151357 30 285 11.3 29.0 0.00 0.00 0.00 48 1020.4
20260905150856 30 306 12.9 29.0 0.00 0.00 0.00 48 1020.4
20260905150703 30 0 11.3 24.1 0.00 0.00 0.00 49 1020.4
20260905150204 30 333 11.3 24.1 0.00 0.00 0.00 49 1020.4
20260905145400 30 295 11.3 24.1 0.00 0.00 0.00 48 1020.3
20260905144854 30 290 12.9 24.1 0.00 0.00 0.00 48 1020.3
20260905144709 31 279 9.7 27.4 0.00 0.00 0.00 47 1020.4
20260905143854 31 290 11.3 27.4 0.00 0.00 0.00 47 1020.4
20260905143356 31 292 9.7 22.5 0.00 0.00 0.00 48 1020.4
20260905142850 31 312 12.9 22.5 0.00 0.00 0.00 47 1020.4
20260905142350 31 290 8.0 17.7 0.00 0.00 0.00 47 1020.6
20260905142019 31 310 14.5 32.2 0.00 0.00 0.00 48 1020.6
20260905141936 31 265 6.4 24.1 0.00 0.00 0.00 49 1020.6
20260905141210 31 307 11.3 32.2 0.00 0.00 0.00 46 1020.4
20260905140348 31 279 12.9 24.1 0.00 0.00 0.00 48 1020.6
20260905135847 31 286 8.0 25.7 0.00 0.00 0.00 50 1020.7
20260905135652 31 289 14.5 25.7 0.00 0.00 0.00 50 1020.6
20260905134846 31 314 12.9 25.7 0.00 0.00 0.00 49 1020.6
20260905134654 31 312 11.3 25.7 0.00 0.00 0.00 49 1020.7
20260905133844 31 299 14.5 22.5 0.00 0.00 0.00 48 1020.6
20260905133343 31 347 8.0 19.3 0.00 0.00 0.00 50 1020.6
20260905132844 31 227 9.7 19.3 0.00 0.00 0.00 49 1020.8
20260905132656 31 283 4.8 25.7 0.00 0.00 0.00 50 1020.8
20260905131844 31 309 11.3 25.7 0.00 0.00 0.00 49 1020.8
20260905131341 31 303 9.7 20.9 0.00 0.00 0.00 50 1020.9
20260905130840 31 300 6.4 20.9 0.00 0.00 0.00 50 1020.9
20260905130340 31 334 11.3 22.5 0.00 0.00 0.00 50 1021.0
20260905125841 31 259 9.7 22.5 0.00 0.00 0.00 50 1021.0
20260905125338 31 314 9.7 20.9 0.00 0.00 0.00 48 1021.0
20260905124838 31 348 9.7 20.9 0.00 0.00 0.00 50 1021.1
20260905124644 31 310 12.9 22.5 0.00 0.00 0.00 49 1021.0
20260905123839 31 336 12.9 24.1 0.00 0.00 0.00 47 1021.0
20260905123336 31 295 14.5 24.1 0.00 0.00 0.00 43 1021.1
20260905123144 31 312 8.0 20.9 0.00 0.00 0.00 44 1021.2
20260905122333 31 321 11.3 24.1 0.00 0.00 0.00 46 1021.2
20260905121833 31 296 12.9 24.1 0.00 0.00 0.00 45 1021.2
20260905121334 31 300 14.5 19.3 0.00 0.00 0.00 41 1021.1
20260905120834 31 314 8.0 25.7 0.00 0.00 0.00 44 1021.2
20260905120336 31 323 14.5 25.7 0.00 0.00 0.00 44 1021.1
20260905115833 31 327 8.0 20.9 0.00 0.00 0.00 40 1021.2
20260905115636 31 259 9.7 19.3 0.00 0.00 0.00 41 1021.2
20260905114832 31 320 8.0 16.1 0.00 0.00 0.00 42 1021.2
20260905114332 31 357 3.2 20.9 0.00 0.00 0.00 42 1021.2
20260905113830 31 326 11.3 20.9 0.00 0.00 0.00 39 1021.2
20260905113331 31 313 9.7 24.1 0.00 0.00 0.00 44 1021.2
20260905112830 31 233 14.5 24.1 0.00 0.00 0.00 41 1021.3
20260905112331 31 324 6.4 19.3 0.00 0.00 0.00 40 1021.2
20260905111831 31 324 8.0 16.1 0.00 0.00 0.00 42 1021.2
20260905111332 31 264 9.7 16.1 0.00 0.00 0.00 42 1021.3
20260905110831 31 276 6.4 14.5 0.00 0.00 0.00 42 1021.2
20260905110330 31 324 8.0 16.1 0.00 0.00 0.00 42 1021.2
20260905105830 31 348 8.0 17.7 0.00 0.00 0.00 42 1021.3
20260905105639 31 288 9.7 17.7 0.00 0.00 0.00 42 1021.2
20260905104829 31 343 8.0 17.7 0.00 0.00 0.00 43 1021.3
20260905104330 30 269 6.4 19.3 0.00 0.00 0.00 44 1021.3
20260905103829 30 265 9.7 20.9 0.00 0.00 0.00 43 1021.4
20260905103431 30 324 9.7 24.1 0.00 0.00 0.00 43 1021.4
20260905103409 30 327 9.7 20.9 0.00 0.00 0.00 43 1021.4
20260905102329 30 290 9.7 24.1 0.00 0.00 0.00 44 1021.6
20260905101829 30 321 11.3 24.1 0.00 0.00 0.00 44 1021.6
20260905101329 30 300 11.3 24.1 0.00 0.00 0.00 44 1021.5
20260905100829 30 320 14.5 22.5 0.00 0.00 0.00 45 1021.6
20260905100329 30 331 12.9 22.5 0.00 0.00 0.00 46 1021.6
20260905095829 30 302 14.5 29.0 0.00 0.00 0.00 46 1021.7
20260905095329 30 329 11.3 29.0 0.00 0.00 0.00 45 1021.6
20260905094831 30 316 12.9 22.5 0.00 0.00 0.00 44 1021.6
20260905094328 30 316 9.7 17.7 0.00 0.00 0.00 44 1021.6
20260905093828 30 269 9.7 19.3 0.00 0.00 0.00 44 1021.6
20260905093328 30 269 6.4 19.3 0.00 0.00 0.00 45 1021.5
20260905092831 30 255 9.7 22.5 0.00 0.00 0.00 44 1021.6
20260905092328 30 247 9.7 22.5 0.00 0.00 0.00 44 1021.5
20260905091828 30 250 11.3 20.9 0.00 0.00 0.00 44 1021.5
20260905091327 30 237 11.3 20.9 0.00 0.00 0.00 42 1021.4
20260905090828 30 300 8.0 19.3 0.00 0.00 0.00 43 1021.4
20260905090327 29 240 11.3 24.1 0.00 0.00 0.00 47 1021.3
20260905085827 28 190 11.3 24.1 0.00 0.00 0.00 50 1021.3
20260905085327 28 217 12.9 20.9 0.00 0.00 0.00 50 1021.4
20260905084827 28 178 12.9 20.9 0.00 0.00 0.00 51 1021.3
20260905084327 28 254 9.7 29.0 0.00 0.00 0.00 51 1021.3
20260905084129 28 247 8.0 29.0 0.00 0.00 0.00 52 1021.4
20260905083327 28 182 12.9 22.5 0.00 0.00 0.00 51 1021.2
20260905083131 28 254 9.7 19.3 0.00 0.00 0.00 50 1021.2
20260905082327 28 171 9.7 17.7 0.00 0.00 0.00 48 1021.2
20260905081826 28 204 4.8 24.1 0.00 0.00 0.00 49 1021.2
20260905081326 28 193 9.7 24.1 0.00 0.00 0.00 47 1021.1
20260905080826 28 161 12.9 19.3 0.00 0.00 0.00 47 1021.1
20260905080326 27 179 11.3 22.5 0.00 0.00 0.00 48 1021.1
20260905075828 27 190 8.0 22.5 0.00 0.00 0.00 47 1021.1
20260905075325 27 189 11.3 20.9 0.00 0.00 0.00 47 1021.1
20260905075153 27 209 11.3 19.3 0.00 0.00 0.00 48 1021.1
20260905074328 27 220 8.0 19.3 0.00 0.00 0.00 50 1021.1
20260905073829 27 259 6.4 16.1 0.00 0.00 0.00 50 1021.2
20260905073325 26 217 8.0 19.3 0.00 0.00 0.00 50 1021.1
20260905072825 26 195 9.7 19.3 0.00 0.00 0.00 50 1021.1
20260905072634 26 204 9.7 17.7 0.00 0.00 0.00 49 1021.1
20260905071826 26 247 6.4 20.9 0.00 0.00 0.00 50 1021.1
20260905071325 26 209 11.3 20.9 0.00 0.00 0.00 49 1021.1
20260905070825 26 252 8.0 17.7 0.00 0.00 0.00 50 1020.9
20260905070636 26 185 4.8 16.1 0.00 0.00 0.00 51 1021.0
20260905065824 26 248 8.0 17.7 0.00 0.00 0.00 50 1021.0